Weather History for Huntsville, AL

Change the Weather History Date:

Saturday, June 29, 2013

  Actual Average Record
Temperature  
Mean Temperature 80 °F 80 °F  
Max Temperature 91 °F 90 °F 108 °F (1931)
Min Temperature 69 °F 70 °F 56 °F (1958)
Degree Days  
Heating Degree Days 0 0  
Month to date heating degree days 0 0  
Since 1 June heating degree days 0 0  
Since 1 July heating degree days 3042 3001  
Cooling Degree Days 15 15  
Month to date cooling degree days 412 366  
Year to date cooling degree days 645 629  
Since 1 June cooling degree days 412 366  
Growing Degree Days 30 (Base 50)    
Moisture  
Dew Point 62 °F    
Average Humidity 62    
Maximum Humidity 97    
Minimum Humidity 26    
Precipitation  
Precipitation T in 0.15 in 3.25 in (1918)
Month to date precipitation 2.21 4.15  
Year to date precipitation 31.33 28.52  
Snow  
Snow 0.00 in - - ()
Month to date snowfall 0.0  
Since 1 June snowfall 0.0  
Since 1 July snowfall 0.7  
Snow Depth 0.00 in    
Sea Level Pressure  
Sea Level Pressure 29.70 in    
Wind  
Wind Speed 6 mph (WNW)    
Max Wind Speed 18 mph    
Max Gust Speed 25 mph    
Visibility 10 miles    
Events      
T = Trace of Precipitation, MM = Missing Value Source: NWS Daily Summary

Daily Weather History Graph

Daily Weather History Graph

Search for Another Location

Airport:

Trip Planner

Search our weather history database for the weather conditions in past years. The results will help you decide how hot, cold, wet, or windy it might be!

Date:

Astronomy

Jun. 29, 2013 Rise Set
Actual Time 5:37 AM CDT 8:04 PM CDT
Civil Twilight 5:07 AM CDT 8:33 PM CDT
Nautical Twilight 4:31 AM CDT 9:09 PM CDT
Astronomical Twilight 3:51 AM CDT 9:49 PM CDT
Moon No Moon Rise 12:29 PM CDT (6/29)
Length of Visible Light 15h 25m
Length of Day
14h 27m
Waning Gibbous, 55% of the Moon is Illuminated
Jun 29
Waning Gibbous
Jun 29
Last Quarter
Jul 8
New
Jul 15
First Quarter
Jul 22
Full

Hourly Weather History & Observations

Time (CDT) Temp. Heat Index Dew Point Humidity Pressure Visibility Wind Dir Wind Speed Gust Speed Precip Events Conditions
12:53 AM 75.9 °F - 72.0 °F 87% 29.70 in 10.0 mi West 5.8 mph - N/A   Scattered Clouds
1:53 AM 75.9 °F - 71.1 °F 85% 29.70 in 10.0 mi NW 11.5 mph - N/A   Mostly Cloudy
2:53 AM 75.0 °F - 69.1 °F 82% 29.70 in 10.0 mi NW 3.5 mph - 0.00 in   Overcast
3:53 AM 73.9 °F - 70.0 °F 87% 29.70 in 10.0 mi Calm Calm - 0.00 in   Overcast
4:53 AM 72.0 °F - 69.1 °F 91% 29.71 in 10.0 mi WNW 3.5 mph - N/A   Clear
5:53 AM 70.0 °F - 68.0 °F 93% 29.71 in 8.0 mi Calm Calm - N/A   Partly Cloudy
6:53 AM 73.9 °F - 70.0 °F 87% 29.71 in 10.0 mi Calm Calm - N/A   Partly Cloudy
7:53 AM 77.0 °F - 69.1 °F 76% 29.71 in 10.0 mi Calm Calm - N/A   Clear
8:53 AM 82.0 °F 84.5 °F 66.9 °F 60% 29.72 in 10.0 mi Variable 3.5 mph - N/A   Partly Cloudy
9:53 AM 86.0 °F 86.1 °F 61.0 °F 43% 29.72 in 10.0 mi West 8.1 mph - N/A   Clear
10:53 AM 88.0 °F 86.9 °F 57.9 °F 36% 29.72 in 10.0 mi West 11.5 mph - N/A   Partly Cloudy
11:53 AM 88.0 °F 86.5 °F 55.9 °F 34% 29.72 in 10.0 mi NW 8.1 mph 17.3 mph N/A   Scattered Clouds
12:53 PM 88.0 °F 85.9 °F 54.0 °F 31% 29.71 in 10.0 mi NW 9.2 mph 17.3 mph N/A   Scattered Clouds
1:53 PM 91.0 °F - 52.0 °F 26% 29.70 in 10.0 mi WNW 12.7 mph 19.6 mph N/A   Scattered Clouds
2:53 PM 91.0 °F 89.2 °F 55.9 °F 30% 29.69 in 10.0 mi West 12.7 mph 19.6 mph N/A   Scattered Clouds
3:53 PM 90.0 °F 87.9 °F 55.0 °F 30% 29.68 in 10.0 mi WNW 16.1 mph 21.9 mph N/A   Scattered Clouds
4:53 PM 90.0 °F 88.6 °F 57.0 °F 33% 29.66 in 10.0 mi WNW 11.5 mph - N/A   Scattered Clouds
5:53 PM 89.1 °F 87.3 °F 55.9 °F 32% 29.66 in 10.0 mi West 9.2 mph - N/A   Scattered Clouds
6:53 PM 86.0 °F 84.9 °F 57.0 °F 37% 29.67 in 10.0 mi West 6.9 mph - N/A   Partly Cloudy
7:53 PM 81.0 °F 81.3 °F 59.0 °F 47% 29.67 in 10.0 mi WNW 3.5 mph - N/A   Partly Cloudy
8:53 PM 75.9 °F - 60.1 °F 58% 29.68 in 10.0 mi Calm Calm - N/A   Partly Cloudy
9:53 PM 73.9 °F - 61.0 °F 64% 29.70 in 10.0 mi Calm Calm - N/A   Clear
10:53 PM 73.0 °F - 62.1 °F 68% 29.71 in 10.0 mi Calm Calm - N/A   Clear
11:53 PM 72.0 °F - 63.0 °F 73% 29.70 in 10.0 mi Calm Calm - N/A   Clear